Wind_Speed
22 23 25 26 24 22 20 19 20 19 16 13 12 12 14 15 15 13 13 14 14 14 15 17 19 19 19 19 19 18 20 22 20 18 16 15 15 15 15 15 13 12 10 10 13 14 14 13 12 13 13 14 15 14 15 14 13 13 13 13 12 13 13 14 14 15 16 16 16 16 16 15 16 17 18 18 19 19 19 20 21 21 21 22 21 21
21 24 24 21 18 17 18 20 20 19 16 14 14 15 15 14 14 13 13 14 14 15 16 17 20 21 19 19 19 19 22 23 20 19 18 16 15 15 16 16 14 12 11 12 13 13 14 13 13 15 16 16 17 17 17 16 15 15 14 13 12 13 13 13 14 15 16 16 16 17 17 17 18 19 19 20 20 21 21 22 22 22 22 22 22 22
23 24 20 17 18 19 19 20 19 17 15 13 14 14 14 14 13 12 12 13 13 14 15 17 21 22 20 19 19 20 23 23 21 21 20 18 17 16 16 15 15 14 13 12 12 14 15 15 16 16 16 17 17 18 19 18 17 16 14 12 13 13 13 13 14 15 15 16 17 18 18 18 19 19 20 21 22 22 23 22 22 22 22 22 22 22
22 20 19 19 21 21 21 20 19 18 16 15 15 14 13 13 12 11 11 12 13 14 15 17 21 23 20 19 19 19 22 23 21 22 20 18 18 17 17 16 15 15 13 13 14 16 17 17 17 16 16 16 16 18 18 18 18 16 14 13 14 14 14 14 14 15 15 16 18 18 17 18 18 18 19 21 21 21 22 21 21 22 22 22 23 23
18 15 19 22 21 21 21 21 20 20 19 17 16 15 14 13 11 10 10 10 12 13 15 17 20 22 21 18 18 17 19 21 20 20 19 18 17 17 17 17 16 15 14 15 17 18 19 18 17 17 16 16 16 17 17 17 17 16 15 15 15 14 14 14 14 14 15 16 17 17 17 16 17 17 18 18 19 19 20 21 21 22 23 24 25 25
17 15 18 22 21 21 21 21 21 21 21 19 17 17 15 13 12 11 11 11 13 13 15 15 11 13 18 14 12 13 14 15 17 17 16 15 16 17 17 16 16 17 17 18 19 19 19 18 18 18 17 16 17 17 18 18 18 18 17 16 15 14 14 14 14 14 15 15 16 16 15 15 15 16 16 17 18 19 20 21 23 24 25 26 27 27
20 17 16 19 21 20 21 21 21 21 20 19 17 17 16 15 14 13 13 13 11 9 10 10 4 9 20 18 14 15 13 13 14 13 14 15 16 17 16 15 15 16 17 19 19 19 18 19 19 19 19 18 18 19 20 21 20 19 18 17 16 16 15 14 13 13 14 14 14 14 14 14 15 16 16 17 19 21 21 22 24 25 25 26 27 28
22 21 17 18 20 21 22 21 21 21 20 18 16 15 15 14 14 13 14 13 11 11 12 13 10 12 22 24 18 18 16 12 12 13 14 16 15 15 15 14 14 15 17 18 19 19 19 20 21 21 21 20 20 20 20 20 19 19 18 17 17 16 15 14 13 13 12 13 13 13 14 14 15 16 16 19 21 22 22 22 23 24 25 26 27 28
21 22 20 19 21 21 22 20 19 20 19 17 15 14 12 11 11 12 12 11 11 12 11 13 11 9 18 27 23 22 20 15 14 13 14 14 11 12 13 14 15 15 16 17 18 19 20 20 20 19 20 20 21 20 19 18 18 18 17 17 17 15 15 15 14 13 13 13 14 14 15 15 15 17 18 19 21 22 22 22 22 22 23 24 25 26
18 20 20 19 20 21 20 20 19 19 18 17 15 13 12 10 10 9 9 10 9 10 10 12 12 7 15 28 26 22 21 16 12 9 8 8 7 8 10 11 14 15 16 17 17 17 16 15 13 12 13 14 16 17 17 17 16 16 16 16 16 16 16 15 14 14 14 15 15 15 16 16 17 18 19 20 21 21 21 20 20 21 22 23 23 24
19 19 21 21 20 19 19 20 20 19 17 16 15 13 10 9 8 8 9 9 7 7 7 10 14 10 9 18 19 15 13 8 5 7 9 10 8 7 6 6 7 9 11 12 12 11 9 9 9 9 10 11 12 13 13 14 15 15 15 16 16 16 16 15 15 15 15 15 16 15 16 17 18 19 20 20 20 20 20 19 19 21 21 22 22 22
20 18 21 23 22 20 19 19 19 18 17 15 15 14 10 6 5 6 7 6 4 3 2 4 11 15 12 10 7 2 2 3 8 12 13 12 9 7 5 5 5 7 8 9 9 7 6 7 8 9 10 10 10 11 11 12 13 14 14 15 15 16 16 16 16 15 15 15 15 15 17 17 18 19 20 20 20 19 20 20 20 22 22 22 22 21
22 21 21 22 22 22 21 20 19 18 17 16 14 13 10 3 1 3 3 3 5 5 3 4 7 13 20 20 12 6 5 6 11 14 13 12 10 10 10 9 10 10 11 10 8 7 6 6 7 7 8 8 9 10 10 11 11 12 12 13 14 15 16 16 16 15 15 15 16 17 18 18 19 20 20 20 20 20 21 22 23 24 24 23 22 21
20 20 23 24 23 25 24 24 24 21 19 18 16 14 10 4 3 3 3 2 5 6 7 9 8 11 18 19 17 17 18 17 17 16 15 15 14 14 13 13 12 12 11 11 9 9 9 10 10 9 9 9 10 11 12 12 12 11 12 12 13 15 16 16 16 16 16 16 18 19 21 21 21 20 20 21 22 22 23 24 24 24 23 22 20 19
21 17 24 28 25 25 27 25 23 20 17 17 18 17 16 11 5 3 4 3 2 1 5 10 7 6 6 1 3 3 12 19 20 18 17 17 15 14 14 12 9 9 10 11 11 11 11 11 11 10 10 10 11 11 12 12 12 12 12 13 14 15 16 16 16 17 17 18 19 21 22 23 23 22 21 22 23 24 24 24 24 23 22 21 19 18
27 19 22 28 27 24 24 24 22 19 17 17 19 20 20 18 12 5 4 4 1 2 3 9 11 12 11 7 2 3 3 5 9 11 13 14 14 13 12 10 8 8 10 11 11 11 11 10 9 9 9 9 10 10 11 12 12 13 13 14 14 15 17 17 18 18 19 20 20 22 23 24 24 23 22 23 24 25 25 25 25 23 22 20 18 17
27 21 17 22 27 25 21 23 24 22 20 19 22 25 22 17 14 9 4 4 2 3 6 10 17 22 21 18 16 14 14 14 13 12 12 13 13 11 10 8 6 7 7 9 10 11 11 10 10 10 9 9 10 10 11 12 13 15 15 16 16 17 18 19 20 20 21 21 22 23 24 25 26 26 24 24 25 26 26 26 25 24 22 21 20 19
24 20 16 18 24 26 24 23 24 25 24 22 23 25 21 15 14 12 5 1 1 2 7 11 17 21 17 13 10 9 12 16 18 16 15 16 15 12 11 8 8 9 9 10 12 12 13 13 12 11 10 10 10 10 12 13 15 17 18 19 19 20 21 22 23 23 23 24 25 26 26 27 27 28 28 27 27 28 28 27 26 26 24 23 22 21
23 17 16 19 21 23 26 25 25 27 28 27 25 23 19 13 12 13 8 0 1 2 5 7 12 17 18 16 13 9 8 10 14 15 17 18 15 11 11 11 13 14 14 14 14 13 13 13 12 11 10 10 10 11 13 15 18 20 21 23 23 24 25 26 26 26 26 27 27 28 28 28 28 30 30 29 29 29 29 28 28 28 26 25 24 24
25 18 14 19 22 23 26 29 32 33 33 32 26 21 19 15 12 15 14 6 3 3 3 3 5 9 12 13 12 10 9 10 14 18 19 17 13 10 11 14 15 16 17 17 16 15 14 12 12 12 11 10 10 12 15 18 22 23 25 26 27 28 28 28 29 29 29 29 30 31 30 30 30 31 30 29 30 30 30 29 30 30 29 28 27 27
27 22 17 19 23 26 29 33 37 37 35 34 29 23 23 21 15 13 16 15 9 3 2 2 5 4 1 3 3 2 5 9 14 18 17 12 8 8 11 13 15 16 16 16 14 14 13 12 14 15 15 16 17 20 23 25 27 28 28 29 31 32 31 31 31 31 32 32 32 32 32 32 32 30 29 30 31 31 30 31 32 31 31 31 31 32
30 28 24 22 26 31 34 33 33 33 33 34 33 31 31 31 25 14 10 18 19 11 6 3 6 10 8 5 4 2 5 10 13 15 13 7 6 8 12 14 15 15 14 13 12 12 13 16 19 21 23 24 25 27 30 31 31 30 29 30 33 34 34 33 32 33 33 33 32 33 33 33 31 28 27 30 31 31 32 33 33 33 34 34 35 37
34 29 26 26 28 30 29 29 30 31 33 35 34 36 35 35 36 26 12 15 19 17 15 7 7 17 17 12 11 8 7 12 14 14 11 10 12 15 17 17 16 14 13 12 13 16 20 24 27 29 30 30 31 32 34 36 35 34 33 35 37 37 34 33 33 33 33 33 33 34 35 34 30 27 27 30 31 32 33 33 34 35 37 38 40 41
36 30 27 24 22 25 27 29 31 30 34 37 37 39 37 35 38 34 24 18 16 20 20 9 6 17 15 8 9 7 9 13 13 11 11 12 15 16 16 16 15 14 14 16 20 23 27 30 33 35 35 34 35 37 39 40 40 41 41 41 40 37 34 33 33 34 34 34 34 35 36 34 32 30 30 31 32 33 33 34 35 37 39 41 43 44
35 31 28 18 8 10 16 20 27 32 35 38 40 40 39 37 34 33 30 22 14 21 24 13 12 23 15 6 10 12 11 10 9 10 12 14 15 15 14 14 14 16 19 22 25 28 31 33 35 38 38 38 40 42 43 43 42 42 42 41 39 37 35 34 33 33 33 34 35 36 37 36 35 34 33 33 34 35 36 36 37 39 41 43 45 46
35 35 34 24 12 10 13 17 28 37 37 36 39 39 39 38 35 34 32 24 20 27 29 25 26 28 20 14 14 13 10 9 10 12 14 14 15 15 16 18 21 24 28 31 33 34 36 38 39 41 42 42 42 42 41 40 40 40 39 39 38 37 36 34 33 32 33 34 36 37 37 37 36 37 37 37 38 38 39 40 41 43 45 47 49 50
33 37 39 37 33 32 32 30 31 33 33 36 39 39 38 38 37 36 32 30 33 33 30 36 40 34 31 28 21 17 16 15 15 16 17 19 22 25 28 31 33 34 35 35 36 37 38 39 39 40 40 40 39 39 38 38 38 38 38 37 36 36 35 34 33 34 34 36 38 37 36 36 37 37 38 39 40 41 43 44 45 46 48 50 52 53
30 34 38 41 42 42 41 37 32 30 31 35 38 39 39 37 37 39 37 38 41 31 27 41 45 39 42 40 32 31 33 29 28 28 28 31 33 35 36 37 37 36 35 34 34 34 34 35 36 37 37 38 38 37 36 36 35 36 35 34 34 33 33 33 33 34 35 36 37 35 34 34 36 38 39 40 41 42 44 46 48 49 50 52 53 55
29 31 34 36 38 39 39 38 36 34 32 32 34 36 39 39 39 42 42 43 43 37 37 45 43 41 46 44 39 41 40 36 35 34 34 35 35 37 38 39 39 38 36 33 32 32 33 35 36 36 36 36 35 35 34 33 32 33 34 34 34 34 33 32 32 34 35 35 34 32 31 31 33 35 38 40 42 43 45 47 49 51 53 54 55 56
29 29 31 31 33 35 37 37 37 36 33 32 32 32 34 37 40 43 44 44 45 45 46 47 44 46 48 44 43 42 39 39 39 38 38 38 38 40 41 41 41 38 34 32 31 34 36 35 34 33 33 33 32 33 32 31 31 32 33 34 34 33 32 32 32 33 33 32 31 31 30 31 32 33 35 37 40 42 44 47 49 51 52 54 55 56
31 31 30 30 30 31 34 35 35 35 33 33 32 31 31 33 36 41 44 44 46 47 47 46 48 50 49 46 44 42 41 43 42 41 42 42 42 43 42 40 38 34 32 33 35 37 37 34 32 31 30 30 31 31 31 31 30 31 31 32 32 32 33 32 32 32 32 31 31 31 31 31 32 33 34 35 36 38 40 42 45 46 48 49 50 52
33 32 29 29 27 28 32 33 32 32 31 30 33 35 36 38 39 41 43 42 44 45 45 46 49 50 48 45 41 41 42 43 42 42 42 41 41 40 39 38 36 36 36 37 38 37 35 32 31 29 29 30 30 30 30 30 30 30 30 30 30 31 32 32 32 30 30 31 32 32 32 32 32 33 33 34 35 37 38 40 41 42 44 45 46 47
34 34 33 30 25 27 30 29 29 27 20 24 37 43 42 43 42 41 41 41 41 41 42 45 48 47 44 42 40 40 41 40 39 39 39 39 39 38 39 40 41 42 43 41 38 35 32 31 30 30 31 31 30 31 31 31 32 31 31 31 30 31 31 30 30 29 30 31 32 33 33 34 34 35 35 36 37 38 39 40 41 42 43 44 44 46
33 33 33 31 26 25 26 24 23 17 13 25 43 45 42 43 44 43 43 43 42 41 42 44 45 44 43 42 41 40 39 38 38 38 38 39 39 40 43 44 44 44 44 41 38 35 33 33 32 32 33 32 31 31 31 32 32 32 32 31 31 31 30 30 30 31 33 33 34 35 36 37 38 38 39 40 41 42 43 43 43 44 44 45 45 46
30 29 27 26 25 22 21 20 14 9 21 40 46 41 39 40 40 40 41 42 41 41 42 43 44 44 42 40 39 38 38 37 37 39 40 42 44 45 46 45 43 42 41 39 38 37 36 35 34 33 32 31 31 31 30 30 30 30 30 31 31 31 32 33 34 36 37 38 38 39 41 42 43 43 45 46 46 47 47 47 47 47 47 47 47 47
30 29 26 26 26 20 17 17 11 8 23 38 39 40 43 40 37 38 40 41 42 41 42 43 43 43 41 39 39 38 39 40 41 43 44 45 45 45 43 42 40 39 38 37 37 37 37 36 34 32 31 30 31 31 31 30 30 30 31 31 32 33 34 36 38 40 41 42 43 44 45 46 47 47 48 48 49 49 48 48 48 47 47 48 48 48
34 33 32 30 29 24 19 20 19 14 18 28 34 38 41 39 37 36 37 41 42 40 41 42 42 41 40 40 42 41 41 43 43 43 43 42 42 42 41 40 38 37 37 37 36 37 36 35 34 33 32 32 32 32 33 32 33 33 33 34 34 35 37 39 42 44 45 46 47 47 47 48 48 48 49 48 48 48 48 47 47 47 47 48 48 48
35 35 35 31 29 30 25 19 15 10 15 31 40 39 37 34 29 25 26 33 37 35 35 37 36 37 38 39 41 41 40 40 39 39 38 37 37 37 37 37 37 37 36 36 36 35 35 34 33 32 32 32 32 33 34 34 34 35 35 36 37 38 41 43 45 46 47 47 46 45 45 45 45 46 46 46 46 46 46 46 46 46 46 47 47 48
35 35 36 32 27 29 27 18 11 11 21 38 43 40 38 33 25 20 19 27 38 36 30 29 29 30 31 31 31 32 32 33 34 33 33 33 34 35 35 36 36 36 36 37 37 36 35 33 31 30 30 30 30 30 32 33 35 36 37 38 40 41 42 42 42 43 43 42 41 41 41 41 42 42 43 43 44 45 46 46 46 46 46 47 47 48
34 34 36 35 31 30 29 23 19 21 29 37 38 37 35 29 24 18 14 22 36 32 23 24 25 25 26 26 26 28 29 30 31 31 32 33 33 34 35 35 35 36 36 36 37 36 36 34 33 31 31 31 31 32 33 34 35 36 38 39 39 39 39 38 37 37 37 37 36 36 36 37 38 39 40 40 41 42 44 46 47 48 48 48 49 49
32 33 34 37 35 33 30 23 20 25 32 37 37 35 27 18 17 21 20 24 30 24 18 22 23 21 23 24 25 28 29 29 30 32 32 34 34 35 36 37 37 37 37 36 37 37 37 36 35 34 33 34 35 36 37 38 38 39 39 39 38 38 37 37 38 38 38 38 37 37 37 37 38 38 38 38 38 38 39 42 44 47 48 50 51 51
33 31 30 34 34 32 32 27 19 20 28 34 35 33 25 17 20 24 27 29 29 27 26 26 25 24 25 25 26 29 31 32 34 35 36 36 36 37 37 37 38 38 38 38 38 38 38 38 37 36 36 37 39 40 41 42 42 42 42 41 40 40 40 40 41 41 41 42 42 42 43 43 42 41 40 40 40 39 38 38 40 42 44 46 47 48
36 31 28 32 33 29 27 23 14 15 26 32 30 30 29 26 26 29 32 32 32 33 33 31 31 31 30 30 32 33 33 34 35 35 36 36 36 36 36 37 37 37 38 38 38 39 40 41 41 41 41 41 42 43 44 45 44 44 44 44 45 46 46 47 47 47 47 47 47 47 48 48 48 47 45 44 44 43 42 41 40 40 41 43 44 44
33 32 30 34 36 31 27 26 24 28 36 37 34 35 35 33 31 31 31 31 32 32 32 32 33 32 32 32 32 31 31 32 32 33 34 34 35 35 35 35 36 36 37 38 39 40 42 43 44 44 44 44 45 45 46 48 49 49 49 50 51 52 52 53 53 53 52 52 52 51 51 52 52 51 50 49 48 47 46 45 44 43 42 42 43 44
32 35 34 34 36 34 33 34 35 35 35 35 36 38 37 34 31 29 28 28 28 29 29 29 29 30 30 31 30 29 30 29 30 31 32 32 33 33 34 35 36 37 39 40 41 42 44 45 46 47 47 47 47 46 47 48 51 53 54 54 54 55 55 55 55 54 53 52 52 52 52 53 54 54 53 52 51 50 49 49 48 48 47 45 44 44
33 35 35 33 32 31 31 32 32 30 30 30 32 32 32 31 30 29 28 27 26 27 27 27 27 28 29 29 29 28 28 28 29 30 31 33 35 36 37 39 40 41 43 44 45 46 47 48 49 50 51 51 49 48 47 48 50 52 54 54 54 55 56 56 56 55 54 52 51 51 51 52 53 53 54 53 52 52 51 51 51 50 50 50 49 47
32 31 30 29 27 26 27 29 30 30 30 31 32 33 33 32 29 27 27 25 24 24 25 26 27 27 27 28 28 28 29 30 32 34 36 38 40 41 42 43 44 45 46 46 47 48 49 50 51 52 53 53 51 50 49 49 50 52 53 54 55 56 57 57 57 56 55 54 53 52 51 51 51 52 52 52 52 52 52 52 52 52 52 52 52 51
32 31 29 28 28 28 28 28 28 28 29 30 31 32 32 31 28 26 26 25 24 25 25 26 26 26 27 28 30 32 36 38 40 41 41 41 42 43 44 45 46 47 47 46 47 48 49 50 51 52 53 53 53 53 53 53 54 54 55 56 57 57 58 58 57 57 56 55 54 53 52 52 51 50 50 49 50 50 51 51 51 52 52 52 53 52
32 32 31 29 29 31 31 30 30 29 27 28 29 30 31 31 29 27 25 26 26 26 27 28 29 30 33 35 37 40 41 42 42 42 42 42 43 44 45 46 47 47 48 49 49 50 51 52 52 53 54 55 56 56 57 57 57 57 57 58 58 59 59 59 58 57 56 54 54 53 52 52 52 51 51 50 49 49 49 48 49 49 50 50 51 51
35 35 34 32 31 33 34 34 33 32 30 28 29 30 31 31 30 29 28 28 29 30 31 33 35 37 39 40 40 40 40 40 41 42 43 44 45 45 46 47 47 48 49 50 51 52 53 53 54 55 56 56 57 58 58 59 59 58 58 58 58 59 60 59 58 57 55 54 53 52 51 51 51 51 53 53 53 52 50 48 47 47 46 47 48 48
38 38 37 37 36 36 35 33 31 31 30 29 30 30 31 31 31 32 32 33 34 35 36 36 37 37 37 37 38 38 40 42 43 45 46 46 47 47 48 49 50 50 51 52 52 53 54 54 56 57 57 58 59 59 59 59 59 58 56 55 56 57 57 57 56 55 54 52 51 50 50 50 49 50 51 52 54 54 52 51 49 47 46 45 45 46
Wind_Direction
197 200 204 207 208 209 212 214 218 224 226 223 219 216 217 221 223 221 217 221 225 231 237 241 246 242 230 230 236 240 246 247 248 250 251 253 253 253 253 248 239 224 206 211 225 230 238 245 249 254 255 258 261 263 265 265 265 264 261 260 260 262 265 270 275 277 278 279 279 277 275 274 269 265 265 267 271 274 274 272 271 272 275 277 278 281
202 207 210 211 212 212 212 212 213 219 224 221 215 213 214 217 222 223 221 225 233 240 244 248 252 250 242 236 235 238 246 251 254 257 257 256 254 250 247 246 243 234 222 225 232 235 241 245 248 252 254 259 263 264 265 264 262 259 257 256 255 257 261 269 275 276 277 279 278 276 273 271 268 268 269 269 270 271 271 272 274 276 278 280 283 284
206 212 210 209 211 209 208 211 211 213 217 215 212 214 215 216 221 223 226 231 238 247 252 256 258 256 255 250 241 239 245 250 254 258 260 260 259 255 252 248 243 239 232 232 237 241 245 247 249 253 256 260 261 261 261 261 260 257 256 256 255 256 260 264 267 270 273 274 273 273 274 274 274 274 274 273 271 270 271 274 277 279 281 282 282 283
207 210 206 207 210 208 208 209 209 209 211 209 209 211 212 216 218 220 228 235 243 255 261 268 270 264 259 257 249 244 247 249 251 255 258 259 260 259 257 250 243 239 233 233 239 243 247 249 253 258 261 262 261 259 259 258 258 257 254 252 250 251 254 258 261 264 266 267 269 273 276 276 277 278 277 275 274 274 277 278 278 279 280 279 278 278
212 208 204 208 208 208 209 209 208 209 211 211 211 212 213 217 220 226 236 243 254 266 271 280 285 276 268 265 258 250 248 252 254 256 259 260 258 256 254 251 247 242 236 235 240 244 248 253 257 262 264 266 267 266 263 259 256 253 250 247 247 248 251 254 257 259 261 264 269 272 274 276 278 279 278 277 277 277 276 274 274 274 272 271 271 272
216 214 209 208 208 207 208 211 210 209 213 216 216 217 218 221 228 237 244 255 269 275 278 286 298 283 272 270 266 256 246 249 255 257 259 260 257 253 250 248 246 243 239 238 242 245 252 260 265 268 268 267 266 263 260 256 253 252 250 249 248 247 248 251 253 256 261 265 268 271 274 277 277 277 277 276 273 269 266 263 263 263 263 264 266 268
212 215 213 209 209 208 207 209 211 211 214 218 223 224 226 230 238 248 254 261 268 268 276 282 286 281 276 269 265 266 259 258 263 264 262 260 259 258 254 249 245 244 243 244 247 251 257 264 267 268 268 265 262 258 255 254 254 255 253 249 245 244 246 250 254 258 265 269 270 271 272 274 276 278 278 273 267 264 262 261 260 260 261 262 264 267
210 210 209 206 207 209 207 207 209 211 214 220 226 229 231 238 244 251 257 257 258 261 269 271 267 280 279 270 268 272 270 268 264 262 264 264 264 264 262 257 251 246 245 247 251 256 259 262 264 266 266 264 260 257 256 255 255 254 251 247 244 245 248 251 256 261 266 268 268 270 271 275 279 280 276 269 266 266 265 266 265 266 265 265 266 268
210 209 210 208 207 209 209 206 206 207 211 218 224 229 231 238 243 248 254 253 260 269 268 266 262 265 273 272 276 281 279 277 274 269 268 267 262 259 259 257 252 246 243 246 250 255 258 260 262 263 262 259 254 252 252 251 251 251 248 247 247 248 249 250 255 261 263 265 266 270 273 276 278 278 276 272 269 269 269 270 271 271 271 270 270 271
213 209 209 210 211 213 209 206 207 207 211 217 223 230 233 236 240 241 247 253 266 271 263 263 257 246 273 275 276 281 284 284 280 267 252 246 236 231 236 240 240 238 237 239 244 249 252 254 257 259 258 255 251 247 247 247 247 247 245 245 248 248 248 250 255 261 263 265 267 271 275 276 277 278 278 277 275 273 272 273 273 272 272 272 272 272
217 210 206 206 208 211 209 207 209 210 215 221 225 227 225 226 231 235 246 256 276 276 255 253 247 233 268 285 283 281 283 282 246 210 205 206 195 193 201 214 227 232 229 228 231 236 242 251 257 261 260 258 255 251 249 248 247 246 247 247 248 247 248 251 257 261 264 267 270 274 278 279 279 278 279 279 278 275 273 272 271 270 270 270 272 273
215 210 207 207 206 204 205 206 208 213 214 216 219 215 207 207 219 238 245 238 248 265 218 225 235 222 225 265 293 266 220 214 193 191 195 196 196 208 220 230 236 235 230 225 227 235 251 263 263 262 261 259 256 253 251 252 253 253 252 250 246 245 248 253 259 264 266 270 276 280 283 284 282 279 278 278 276 272 270 269 268 268 269 270 272 272
210 211 209 209 209 206 203 200 198 203 205 205 206 197 190 172 152 245 244 214 233 242 217 208 217 225 239 255 259 229 221 217 194 195 206 213 221 230 232 241 246 242 243 244 247 256 265 265 257 255 258 258 258 258 258 260 265 263 258 252 248 250 254 258 263 266 270 276 283 287 288 289 287 284 280 275 271 269 268 268 268 269 270 271 272 272
202 211 212 208 209 208 205 201 196 195 196 201 206 199 192 156 91 256 264 283 264 246 216 213 225 251 259 268 267 250 241 228 207 205 222 227 224 228 241 253 251 241 244 251 257 264 268 266 263 261 260 262 264 266 269 273 276 274 269 264 261 264 266 268 270 273 277 282 285 287 290 291 290 287 280 273 269 268 268 269 269 270 270 269 269 269
196 208 213 208 208 208 208 209 210 212 212 215 220 219 219 212 193 215 219 215 256 237 194 202 221 251 226 203 356 257 228 224 218 219 228 231 234 244 255 255 241 232 240 252 262 268 270 269 267 266 262 263 267 270 274 278 279 278 276 273 270 271 271 272 275 277 280 282 284 287 290 291 291 286 279 273 270 269 269 269 269 268 267 266 266 268
203 212 215 210 211 212 211 212 216 219 221 224 223 221 226 227 225 226 228 230 267 24 230 216 231 245 228 214 196 118 162 210 215 222 230 236 241 247 248 240 236 243 250 260 266 266 265 262 258 259 260 265 272 276 280 283 283 280 277 273 270 270 272 273 275 276 279 282 286 289 290 290 289 285 279 274 271 268 267 267 268 266 264 263 265 268
204 212 215 209 209 210 210 213 215 215 216 218 217 217 220 223 224 230 252 270 285 296 263 235 242 253 256 259 256 245 250 258 253 248 240 228 222 229 241 243 245 255 254 254 256 254 254 254 253 255 261 270 278 286 291 290 287 281 276 273 272 274 277 280 281 283 284 286 288 289 288 286 286 285 281 276 272 268 266 266 266 263 261 261 264 266
207 207 209 208 206 208 209 210 215 219 221 220 218 220 221 220 225 226 231 333 37 273 263 241 246 256 257 262 265 237 232 245 252 254 246 231 225 236 251 250 251 259 255 248 247 250 253 255 256 259 266 278 289 294 293 288 284 281 279 278 278 280 282 284 286 288 289 289 288 286 284 283 284 285 284 279 274 268 265 263 262 260 260 261 263 265
214 206 208 210 206 208 210 210 213 218 223 227 228 225 217 211 214 209 204 222 153 237 285 255 248 257 254 252 258 249 234 245 256 255 243 232 232 244 245 241 247 253 252 252 251 251 252 253 256 263 272 282 291 293 290 288 285 283 282 281 280 280 282 284 286 288 289 289 287 284 283 283 283 282 282 278 271 265 262 261 259 259 261 263 264 266
218 213 210 209 206 207 209 210 213 214 216 220 224 221 213 213 212 205 208 212 177 196 273 286 272 269 266 266 269 264 252 239 237 235 229 228 234 237 227 227 236 241 245 249 250 250 252 254 260 266 272 278 286 291 291 290 288 285 285 283 281 280 280 282 284 286 288 288 286 283 282 281 281 280 277 272 265 261 259 259 259 261 263 265 267 270
220 218 218 210 203 205 209 213 218 218 215 215 216 212 209 211 207 210 222 223 216 199 177 267 290 261 154 56 49 116 166 187 205 214 218 228 236 225 222 229 234 236 240 242 242 246 251 257 264 270 276 282 286 290 292 292 289 286 285 283 281 280 279 282 284 285 286 285 282 280 279 278 279 278 274 266 260 259 258 259 262 264 266 269 272 276
219 218 219 212 204 208 214 218 222 224 224 226 227 225 222 218 210 204 220 222 221 224 208 206 275 260 251 262 268 250 200 202 208 211 214 225 238 242 248 248 241 235 234 236 245 260 271 278 283 285 287 288 288 289 292 294 291 287 284 284 283 282 281 283 286 286 285 282 278 276 277 278 278 276 271 265 261 260 260 262 264 267 269 273 278 283
218 218 219 218 219 222 222 223 225 225 226 229 232 234 231 224 217 211 210 215 213 223 234 234 271 270 266 261 261 265 222 206 209 210 215 232 242 244 244 240 236 234 238 254 274 285 289 292 293 294 293 291 290 289 291 292 292 291 290 290 288 287 286 288 288 287 286 284 280 278 279 281 279 273 267 264 262 262 263 264 267 270 274 278 283 288
217 218 216 216 224 226 222 225 227 225 225 225 227 230 228 225 223 220 224 228 214 219 228 219 251 261 263 261 251 229 178 183 195 202 212 224 226 224 226 230 237 247 259 274 282 286 288 289 290 291 291 290 290 290 290 291 291 292 292 291 290 292 292 291 289 288 288 287 284 282 281 281 279 273 267 263 262 262 263 265 269 273 277 281 285 289
213 214 210 200 197 219 219 224 227 224 224 224 225 227 227 227 225 221 226 231 229 233 228 212 239 253 254 232 203 185 180 196 202 206 213 216 215 214 221 233 244 256 268 274 275 277 280 280 280 281 281 282 284 285 286 287 288 289 290 291 293 295 294 292 291 289 287 286 283 280 279 279 278 277 272 266 263 263 263 265 268 273 276 280 283 286
216 216 213 202 186 197 206 212 219 219 217 220 224 225 226 228 225 224 226 224 231 241 231 222 238 248 249 237 212 201 216 221 203 201 205 207 214 223 237 251 261 265 269 270 269 270 271 270 270 271 272 275 279 282 284 286 288 289 291 293 294 295 295 294 292 289 286 285 282 279 277 277 278 278 276 271 267 265 265 266 268 271 275 278 281 283
219 221 222 220 218 222 223 221 223 222 218 221 226 226 226 228 228 228 224 221 230 238 235 236 242 246 249 248 239 232 236 233 228 231 232 238 248 258 266 274 277 277 276 277 277 276 274 274 274 275 277 281 284 286 288 290 290 291 291 292 293 294 294 293 291 289 287 285 285 284 283 280 278 278 277 274 271 268 267 269 270 272 275 278 281 284
218 223 226 229 232 236 237 237 238 237 232 231 232 231 229 229 229 228 225 230 235 234 238 246 246 247 252 252 251 256 259 259 260 261 259 260 265 273 278 280 281 281 283 285 284 281 279 280 282 284 286 288 289 289 290 290 290 290 289 289 288 288 288 287 286 285 284 284 286 289 289 286 282 280 279 278 276 273 272 271 272 273 275 278 281 284
220 224 228 231 235 239 242 242 242 242 242 241 239 238 236 233 231 230 231 237 237 233 243 252 250 251 257 257 258 263 266 266 267 266 264 265 270 276 279 280 281 284 286 285 282 283 287 289 289 289 288 287 286 285 286 287 286 285 282 281 280 280 280 280 280 280 281 283 287 289 289 287 285 282 280 279 279 279 277 276 275 275 276 278 280 282
223 228 231 232 235 239 241 241 243 243 242 242 240 239 239 238 238 238 240 242 241 240 247 254 254 256 261 262 263 266 269 269 269 269 269 273 277 278 279 280 282 284 284 283 285 290 293 294 291 289 286 283 282 281 281 282 281 279 277 275 274 274 274 276 277 277 279 282 284 285 285 283 282 280 279 279 278 278 278 278 278 277 278 279 280 281
225 228 231 233 235 238 240 241 242 241 241 242 242 239 238 237 238 240 242 243 242 242 247 251 254 258 260 261 264 268 269 269 271 273 275 278 279 279 281 283 283 283 282 284 289 291 291 289 287 285 286 285 284 283 282 281 280 278 277 275 272 270 270 272 274 275 277 278 279 280 279 279 278 276 277 278 278 278 278 277 278 278 279 280 280 280
224 226 227 229 232 234 237 239 238 237 236 234 234 237 237 234 235 237 239 240 240 242 247 249 251 256 260 261 264 267 268 270 273 276 278 279 280 281 284 285 286 286 287 288 289 288 286 284 283 284 286 287 287 286 283 282 280 279 278 277 275 273 272 273 274 274 275 275 275 274 274 274 273 273 275 276 277 278 278 279 279 281 282 282 281 281
218 222 226 227 226 230 235 234 230 228 224 224 231 237 239 238 238 238 237 239 240 242 245 247 250 257 262 265 267 269 271 274 276 276 277 279 280 282 283 284 285 287 290 291 290 288 284 281 282 285 287 287 287 285 281 279 278 278 278 278 277 276 276 276 276 275 273 272 271 271 272 272 272 272 275 276 277 278 279 280 280 281 282 283 283 282
212 217 223 224 225 230 232 228 223 214 213 234 240 242 242 243 243 242 243 247 248 246 247 251 256 262 264 266 269 271 272 273 274 275 277 277 278 279 280 282 284 286 289 291 290 288 285 283 285 287 288 288 287 283 279 276 276 276 277 277 277 277 276 275 275 275 274 272 273 275 275 275 275 276 278 280 280 281 281 282 282 282 283 283 283 283
212 213 217 218 219 225 223 215 210 213 232 241 245 244 243 244 245 246 250 253 252 250 251 254 258 262 263 265 266 267 268 270 271 273 275 275 277 279 281 282 284 285 286 287 287 288 288 289 289 289 289 289 287 283 279 275 273 274 275 277 277 277 277 277 277 278 277 277 280 282 282 281 282 283 284 285 285 285 285 285 284 284 283 284 284 284
221 220 223 223 223 222 211 200 202 235 240 242 246 247 245 243 241 242 246 248 249 250 252 254 258 261 263 262 261 263 266 269 271 273 274 275 278 280 282 283 283 283 283 283 284 287 288 289 289 288 287 285 283 281 278 276 274 274 276 279 280 281 282 283 282 283 283 285 288 289 288 287 287 287 287 287 288 288 287 286 285 284 283 283 284 284
233 232 234 233 232 230 220 216 229 244 245 243 245 247 248 248 245 245 249 253 254 254 253 256 260 261 260 260 260 262 265 268 270 271 272 273 275 277 279 280 281 282 283 284 285 286 287 288 288 287 286 284 282 280 279 279 279 280 282 284 285 286 287 287 287 288 289 291 292 292 292 291 290 289 289 288 288 287 285 284 283 282 282 282 282 283
236 236 237 236 236 236 233 232 236 238 246 247 246 248 253 255 254 252 251 254 256 255 252 254 256 257 257 258 259 261 262 264 265 267 269 270 271 272 274 277 279 282 284 285 286 287 287 288 287 287 287 285 284 282 282 282 283 284 286 287 287 289 290 291 292 292 292 293 293 293 292 291 290 289 288 287 285 283 281 280 279 279 280 280 281 282
234 236 237 234 231 228 226 227 229 230 245 251 252 255 256 256 257 252 242 250 256 254 249 248 249 251 254 255 257 258 258 258 260 263 266 268 270 272 275 277 280 282 284 285 286 286 286 286 286 287 286 286 285 285 285 286 286 287 288 290 291 293 295 295 296 295 295 295 294 294 293 292 291 290 289 287 285 282 280 278 277 277 278 279 280 282
227 229 230 227 224 222 221 225 231 236 245 252 256 257 257 257 255 240 225 249 259 257 251 250 252 252 253 255 255 254 253 255 259 263 265 268 272 274 275 276 278 279 281 282 283 284 285 286 287 288 289 290 291 291 290 290 290 291 292 294 295 296 297 296 296 296 296 296 296 296 296 296 294 293 292 291 289 286 283 281 279 278 278 278 279 280
216 220 222 223 224 224 223 225 230 234 241 248 252 253 254 249 228 215 222 249 262 263 261 258 258 257 256 255 252 251 253 257 261 264 267 269 271 272 273 274 276 276 277 278 280 281 283 285 288 290 293 295 295 296 296 295 295 295 295 295 295 294 294 293 293 294 294 294 295 295 296 298 299 298 297 295 293 292 289 286 284 281 280 280 280 280
212 216 219 221 221 223 224 227 231 235 238 241 244 245 242 221 208 224 246 260 265 267 267 266 266 263 259 256 254 256 260 262 265 267 268 268 268 268 268 270 272 274 275 277 279 280 281 283 286 289 292 295 296 296 296 296 295 295 294 294 294 293 293 293 292 293 293 293 294 294 295 297 299 299 300 299 298 297 295 293 290 287 285 283 282 282
222 218 215 219 222 223 225 225 226 233 236 236 236 238 240 237 238 251 261 263 263 266 267 268 269 267 264 263 263 264 264 264 265 265 264 264 264 264 265 267 268 270 272 274 277 279 280 281 283 285 287 289 291 292 293 293 293 293 293 293 293 294 294 293 294 293 293 293 293 293 294 295 296 297 298 298 298 298 298 297 295 293 290 288 287 286
229 222 218 223 226 223 219 223 234 244 246 248 249 249 251 254 256 259 260 259 262 265 266 266 267 266 266 266 265 262 260 259 259 259 259 261 262 264 266 269 270 273 274 275 277 278 279 280 281 282 284 286 289 291 293 294 294 294 295 295 295 295 295 295 295 295 295 295 295 294 293 293 293 295 295 296 295 295 295 296 296 296 295 292 290 289
231 233 234 236 237 235 234 239 248 253 254 257 258 259 260 262 263 263 262 261 262 262 262 262 263 263 263 261 258 256 254 254 254 256 258 261 264 267 270 272 273 276 277 278 279 280 281 282 283 283 285 289 292 294 295 295 296 296 297 298 298 298 297 297 297 297 296 296 296 295 295 294 293 294 294 294 294 293 293 293 293 294 295 294 293 292
235 238 240 241 242 243 245 248 251 253 254 255 257 260 264 265 265 265 266 264 262 261 262 261 261 261 259 255 252 251 251 253 255 259 263 266 269 272 274 275 277 278 280 282 283 285 285 286 287 288 289 292 295 296 296 297 298 298 299 299 299 299 298 298 298 297 296 295 294 293 293 294 294 294 293 293 292 291 290 290 290 291 291 292 292 292
235 236 238 238 238 241 245 248 250 251 251 253 255 259 263 265 266 266 265 264 263 262 259 257 254 253 251 249 249 252 258 263 268 271 273 274 275 277 279 279 280 282 284 285 287 288 288 289 289 290 291 292 295 296 297 297 298 299 299 299 299 299 298 298 297 297 296 294 292 290 290 290 291 291 290 290 290 289 289 289 288 288 288 288 289 289
237 237 236 236 239 242 246 250 253 254 253 254 256 259 262 264 264 263 261 258 255 253 250 246 245 246 250 254 259 264 271 275 277 278 278 278 279 280 281 282 284 286 288 289 289 290 291 291 291 291 292 293 294 296 297 298 299 300 300 300 299 299 298 297 297 296 295 294 291 289 287 286 285 285 285 286 286 287 287 287 287 286 286 285 285 285
241 240 240 240 240 242 244 247 249 250 250 251 253 256 258 258 258 257 254 250 247 245 245 245 249 255 262 267 270 272 275 277 277 278 278 279 280 280 282 283 285 287 289 290 291 292 292 292 293 293 293 294 295 296 297 298 299 300 300 300 299 299 298 297 297 296 295 295 293 291 288 285 283 282 281 282 283 285 286 286 286 285 285 284 283 283
241 242 243 243 240 241 247 251 252 252 252 254 256 257 257 257 256 254 252 250 249 251 254 258 262 266 269 272 273 274 276 276 277 278 280 281 282 283 284 285 286 287 289 290 291 292 293 293 294 294 294 295 295 296 296 297 297 298 298 298 298 297 297 296 296 296 295 295 294 292 290 288 285 282 280 281 282 283 283 284 286 286 286 285 285 284
244 245 247 248 248 250 253 254 253 253 254 256 257 257 257 256 256 255 255 255 257 260 263 265 267 269 270 271 273 274 276 277 279 279 280 282 283 284 286 287 288 288 289 290 291 292 292 293 294 294 295 295 295 296 296 296 297 297 297 297 296 296 295 295 295 295 295 294 293 292 290 289 287 284 282 281 281 282 283 283 284 285 286 287 288 287
Height
3140 3141 3141 3143 3145 3148 3150 3152 3153 3154 3155 3156 3156 3157 3157 3158 3159 3161 3162 3163 3163 3163 3163 3163 3162 3163 3164 3165 3166 3166 3166 3165 3166 3167 3168 3169 3169 3169 3170 3170 3171 3172 3173 3173 3173 3174 3174 3174 3175 3175 3175 3174 3175 3175 3175 3175 3176 3176 3177 3177 3177 3177 3177 3177 3177 3177 3177 3177 3177 3177 3178 3178 3178 3178 3178 3178 3177 3177 3177 3177 3176 3176 3176 3176 3176 3176
3139 3139 3141 3144 3146 3148 3150 3150 3151 3153 3154 3155 3155 3156 3156 3157 3158 3160 3161 3161 3162 3162 3162 3161 3160 3160 3162 3163 3164 3165 3164 3163 3165 3165 3166 3167 3167 3168 3168 3168 3169 3170 3171 3172 3172 3173 3173 3173 3173 3173 3173 3173 3173 3173 3173 3174 3174 3174 3175 3175 3175 3175 3175 3175 3175 3175 3175 3175 3175 3175 3175 3175 3175 3175 3175 3175 3175 3175 3174 3174 3174 3174 3174 3174 3174 3173
3137 3138 3141 3145 3146 3147 3148 3149 3150 3152 3153 3153 3154 3155 3155 3156 3157 3158 3159 3160 3161 3160 3160 3159 3158 3158 3160 3161 3162 3163 3162 3162 3163 3163 3164 3165 3165 3166 3166 3167 3168 3168 3169 3170 3171 3171 3171 3172 3172 3172 3172 3172 3172 3172 3172 3172 3172 3172 3173 3173 3174 3173 3174 3174 3173 3173 3173 3173 3172 3172 3172 3172 3172 3172 3172 3172 3172 3172 3171 3172 3172 3172 3172 3172 3171 3171
3136 3138 3141 3143 3143 3145 3146 3147 3149 3150 3151 3152 3153 3154 3154 3155 3156 3157 3158 3159 3159 3159 3158 3158 3156 3155 3157 3159 3160 3161 3160 3160 3161 3161 3162 3163 3163 3164 3164 3165 3166 3166 3168 3169 3169 3169 3169 3169 3170 3170 3170 3170 3170 3170 3170 3170 3170 3171 3171 3172 3172 3172 3172 3172 3171 3171 3171 3171 3170 3170 3170 3170 3169 3170 3170 3170 3169 3169 3169 3170 3170 3169 3169 3169 3168 3168
3136 3139 3140 3140 3142 3143 3144 3146 3147 3149 3150 3151 3152 3153 3153 3155 3156 3156 3157 3158 3158 3158 3157 3156 3155 3152 3154 3156 3157 3158 3158 3158 3159 3159 3160 3161 3161 3162 3162 3163 3164 3165 3166 3166 3166 3167 3167 3167 3168 3168 3168 3168 3168 3168 3169 3168 3168 3169 3169 3170 3170 3170 3170 3170 3170 3169 3169 3168 3168 3168 3168 3168 3167 3167 3167 3167 3167 3167 3167 3167 3167 3167 3166 3166 3165 3165
3136 3138 3138 3139 3140 3141 3143 3144 3146 3148 3149 3150 3151 3152 3153 3154 3155 3156 3157 3157 3157 3157 3155 3156 3155 3151 3150 3153 3154 3155 3156 3156 3157 3157 3158 3159 3159 3159 3160 3161 3162 3163 3163 3164 3164 3164 3165 3165 3165 3166 3166 3166 3166 3166 3166 3166 3166 3166 3167 3167 3168 3168 3168 3168 3168 3167 3167 3166 3166 3166 3166 3166 3165 3165 3165 3165 3165 3164 3164 3164 3164 3163 3163 3162 3162 3161
3134 3136 3137 3138 3139 3140 3142 3143 3145 3147 3148 3149 3150 3150 3152 3153 3154 3155 3156 3157 3156 3155 3155 3155 3156 3152 3148 3149 3152 3153 3154 3155 3155 3156 3156 3156 3156 3157 3158 3159 3160 3161 3161 3161 3162 3162 3163 3163 3163 3163 3164 3164 3164 3164 3164 3163 3164 3164 3164 3165 3165 3166 3166 3165 3165 3165 3164 3164 3164 3163 3163 3163 3163 3163 3163 3163 3162 3161 3161 3161 3160 3160 3160 3159 3159 3158
3132 3134 3135 3137 3138 3139 3140 3142 3144 3145 3147 3148 3148 3150 3151 3152 3153 3154 3155 3155 3155 3155 3154 3154 3156 3154 3147 3145 3149 3150 3152 3154 3154 3154 3154 3153 3154 3155 3156 3157 3158 3159 3159 3159 3160 3160 3160 3160 3160 3161 3161 3161 3162 3162 3162 3161 3161 3162 3162 3162 3163 3163 3163 3163 3163 3162 3162 3162 3161 3161 3161 3161 3161 3161 3161 3160 3159 3158 3158 3158 3157 3157 3157 3156 3156 3155
3131 3132 3134 3135 3136 3137 3139 3141 3143 3144 3146 3147 3148 3149 3150 3151 3152 3153 3154 3154 3154 3154 3153 3152 3154 3155 3147 3143 3146 3148 3149 3152 3152 3152 3152 3151 3152 3153 3154 3154 3155 3156 3156 3157 3157 3157 3158 3158 3158 3158 3158 3159 3159 3159 3159 3159 3160 3160 3160 3160 3160 3161 3161 3160 3160 3160 3160 3159 3159 3159 3158 3159 3158 3158 3157 3157 3156 3156 3155 3155 3155 3154 3154 3153 3153 3152
3130 3131 3133 3134 3135 3136 3138 3140 3142 3143 3144 3145 3147 3148 3149 3151 3151 3153 3153 3153 3153 3152 3151 3151 3153 3153 3146 3141 3144 3146 3147 3149 3150 3150 3150 3150 3151 3151 3151 3152 3152 3153 3154 3154 3155 3155 3156 3156 3156 3156 3156 3156 3156 3157 3157 3157 3158 3158 3158 3158 3158 3159 3158 3158 3158 3158 3157 3157 3156 3156 3156 3156 3156 3155 3154 3154 3153 3153 3152 3152 3152 3151 3151 3150 3149 3149
3129 3130 3131 3132 3134 3135 3137 3139 3140 3142 3143 3145 3146 3147 3149 3150 3150 3152 3151 3152 3152 3150 3149 3150 3151 3152 3147 3140 3141 3144 3145 3147 3148 3148 3149 3149 3149 3149 3150 3150 3150 3151 3152 3153 3153 3154 3154 3154 3154 3154 3154 3155 3155 3155 3155 3156 3156 3156 3156 3156 3156 3156 3156 3156 3156 3155 3155 3154 3154 3154 3153 3153 3153 3152 3151 3151 3151 3150 3150 3150 3149 3148 3148 3147 3146 3146
3128 3129 3129 3130 3132 3134 3135 3137 3139 3140 3142 3143 3145 3146 3148 3149 3150 3150 3150 3151 3151 3148 3147 3148 3148 3150 3146 3140 3141 3143 3144 3146 3146 3147 3147 3148 3148 3148 3149 3149 3150 3150 3151 3151 3152 3152 3152 3153 3153 3153 3153 3153 3153 3154 3154 3154 3154 3154 3154 3154 3154 3154 3154 3154 3154 3153 3153 3152 3152 3152 3151 3151 3150 3149 3149 3148 3148 3148 3147 3147 3146 3145 3145 3144 3144 3143
3126 3127 3128 3129 3130 3132 3133 3135 3137 3139 3140 3142 3143 3145 3147 3148 3149 3149 3149 3150 3148 3146 3146 3147 3147 3146 3141 3139 3141 3142 3143 3144 3145 3146 3146 3147 3147 3147 3147 3148 3148 3149 3149 3149 3150 3150 3151 3151 3151 3151 3151 3151 3152 3152 3152 3152 3153 3153 3153 3153 3153 3152 3152 3152 3151 3151 3151 3150 3150 3149 3149 3148 3148 3147 3147 3146 3146 3145 3145 3144 3143 3143 3142 3142 3141 3141
3124 3125 3125 3126 3128 3129 3130 3132 3133 3135 3138 3140 3141 3143 3144 3147 3148 3148 3149 3149 3146 3144 3144 3145 3146 3142 3136 3136 3138 3138 3140 3142 3143 3144 3145 3145 3146 3146 3146 3147 3147 3147 3147 3148 3148 3148 3149 3149 3150 3150 3150 3150 3150 3150 3150 3150 3151 3151 3151 3151 3151 3150 3150 3150 3149 3149 3148 3148 3147 3147 3146 3146 3145 3145 3144 3144 3143 3143 3142 3141 3141 3140 3140 3139 3139 3138
3120 3121 3121 3123 3124 3126 3128 3130 3132 3135 3137 3139 3140 3141 3141 3142 3144 3144 3145 3144 3142 3142 3143 3144 3144 3138 3134 3135 3134 3134 3136 3138 3140 3142 3143 3144 3144 3144 3144 3145 3145 3146 3146 3146 3147 3147 3147 3147 3148 3148 3148 3148 3148 3148 3148 3148 3148 3149 3149 3149 3149 3148 3147 3147 3147 3146 3146 3145 3145 3144 3144 3143 3142 3142 3141 3141 3140 3140 3139 3138 3138 3138 3137 3136 3136 3135
3116 3116 3117 3120 3123 3125 3128 3130 3132 3134 3136 3137 3138 3138 3138 3139 3140 3141 3142 3141 3141 3143 3142 3141 3138 3133 3133 3134 3134 3135 3136 3137 3139 3141 3142 3142 3143 3143 3143 3143 3144 3145 3145 3145 3145 3146 3146 3146 3146 3146 3146 3146 3147 3147 3146 3146 3146 3146 3146 3146 3146 3145 3145 3144 3144 3143 3143 3143 3142 3142 3141 3140 3139 3139 3138 3138 3137 3136 3136 3135 3135 3135 3134 3133 3133 3132
3113 3115 3116 3119 3121 3124 3127 3128 3130 3131 3132 3133 3134 3134 3135 3137 3139 3140 3141 3140 3142 3142 3137 3134 3131 3129 3131 3132 3132 3135 3136 3137 3139 3139 3140 3141 3140 3141 3141 3142 3143 3143 3144 3144 3144 3144 3144 3145 3145 3145 3145 3145 3145 3145 3145 3145 3144 3144 3144 3143 3143 3142 3142 3141 3141 3141 3140 3140 3139 3139 3138 3137 3136 3135 3135 3134 3134 3133 3133 3133 3132 3132 3131 3130 3129 3129
3111 3114 3115 3117 3119 3122 3124 3126 3127 3129 3129 3130 3130 3131 3134 3137 3138 3139 3140 3140 3143 3141 3133 3128 3127 3127 3129 3130 3130 3131 3133 3135 3137 3137 3138 3139 3139 3139 3140 3141 3142 3142 3142 3142 3142 3143 3143 3143 3143 3143 3143 3143 3143 3143 3143 3142 3142 3141 3141 3140 3139 3139 3139 3138 3138 3138 3138 3137 3136 3135 3134 3133 3133 3132 3132 3131 3131 3130 3130 3130 3129 3128 3128 3127 3126 3126
3110 3113 3114 3115 3118 3120 3122 3124 3124 3125 3126 3127 3127 3130 3133 3135 3135 3136 3138 3138 3140 3140 3133 3126 3124 3124 3125 3127 3128 3130 3131 3134 3135 3135 3136 3136 3137 3138 3138 3140 3140 3139 3140 3140 3140 3141 3141 3142 3142 3141 3141 3141 3141 3141 3140 3140 3139 3138 3137 3136 3136 3136 3135 3135 3134 3134 3134 3134 3133 3132 3131 3130 3130 3129 3129 3128 3128 3127 3127 3127 3126 3125 3124 3124 3123 3123
3108 3110 3112 3113 3115 3118 3119 3119 3118 3118 3121 3123 3125 3128 3130 3131 3132 3133 3134 3133 3134 3137 3134 3126 3122 3121 3121 3123 3126 3127 3129 3131 3131 3132 3133 3134 3135 3136 3137 3137 3137 3138 3138 3139 3139 3140 3140 3140 3139 3139 3139 3138 3138 3138 3137 3137 3135 3134 3133 3133 3133 3132 3132 3132 3131 3131 3131 3130 3129 3129 3128 3127 3127 3127 3126 3125 3124 3124 3124 3123 3122 3121 3121 3120 3120 3119
3106 3107 3109 3110 3113 3114 3113 3112 3112 3113 3117 3119 3121 3124 3126 3128 3130 3130 3131 3131 3131 3133 3133 3129 3122 3119 3120 3122 3124 3125 3127 3128 3129 3130 3131 3132 3133 3134 3134 3135 3135 3136 3137 3137 3138 3138 3137 3137 3136 3136 3136 3135 3135 3135 3134 3133 3132 3131 3130 3129 3129 3129 3129 3129 3129 3129 3128 3127 3127 3126 3125 3125 3124 3123 3122 3121 3121 3121 3120 3120 3119 3118 3117 3117 3116 3116
3102 3104 3105 3107 3108 3107 3108 3109 3112 3114 3116 3116 3118 3119 3120 3122 3125 3127 3128 3127 3128 3129 3130 3129 3122 3116 3118 3122 3123 3125 3127 3127 3128 3129 3130 3131 3132 3132 3133 3133 3134 3134 3135 3135 3135 3135 3135 3134 3133 3133 3132 3132 3132 3131 3130 3128 3127 3126 3126 3125 3125 3125 3126 3126 3126 3126 3125 3124 3123 3122 3122 3120 3120 3119 3118 3118 3118 3118 3117 3116 3116 3115 3114 3113 3112 3111
3099 3101 3102 3103 3104 3105 3108 3110 3111 3113 3114 3115 3116 3115 3117 3118 3119 3121 3121 3122 3125 3126 3126 3128 3123 3113 3115 3120 3121 3123 3125 3125 3127 3128 3128 3130 3131 3131 3132 3132 3132 3132 3133 3133 3132 3132 3131 3130 3129 3129 3128 3128 3128 3127 3125 3124 3122 3121 3121 3121 3121 3122 3123 3123 3122 3121 3120 3119 3118 3117 3116 3115 3115 3115 3114 3114 3114 3114 3114 3113 3112 3111 3110 3109 3108 3106
3096 3097 3099 3101 3102 3104 3106 3108 3108 3110 3111 3111 3111 3111 3113 3114 3115 3118 3119 3120 3123 3122 3123 3127 3122 3112 3113 3118 3119 3121 3122 3123 3125 3127 3128 3129 3129 3130 3130 3130 3131 3131 3131 3130 3129 3128 3127 3126 3126 3125 3124 3124 3123 3122 3121 3120 3119 3119 3119 3119 3119 3119 3120 3119 3118 3116 3115 3114 3113 3112 3112 3111 3111 3110 3110 3110 3110 3110 3110 3109 3108 3107 3105 3104 3103 3101
3091 3092 3094 3097 3101 3103 3105 3105 3104 3104 3104 3104 3105 3107 3109 3111 3114 3117 3118 3119 3120 3118 3119 3122 3116 3109 3113 3117 3118 3119 3121 3122 3124 3125 3126 3127 3127 3128 3128 3128 3129 3129 3128 3127 3126 3125 3124 3123 3122 3121 3120 3120 3120 3119 3119 3118 3118 3117 3117 3116 3116 3116 3115 3114 3113 3112 3111 3110 3109 3108 3108 3108 3107 3107 3107 3107 3106 3106 3105 3104 3103 3102 3100 3099 3098 3097
3087 3087 3088 3090 3093 3094 3094 3093 3091 3092 3096 3099 3101 3103 3105 3108 3111 3113 3116 3118 3116 3113 3115 3114 3109 3108 3113 3115 3116 3118 3119 3121 3122 3124 3124 3125 3125 3125 3126 3126 3127 3126 3125 3123 3121 3121 3120 3119 3118 3117 3117 3117 3117 3117 3117 3116 3116 3115 3114 3113 3111 3111 3110 3109 3108 3107 3107 3106 3105 3104 3104 3104 3104 3104 3103 3103 3102 3101 3100 3099 3098 3097 3096 3095 3093 3092
3084 3084 3083 3083 3083 3083 3083 3085 3087 3090 3095 3096 3097 3100 3102 3105 3107 3110 3112 3111 3109 3109 3109 3106 3106 3109 3110 3112 3114 3116 3117 3119 3121 3122 3123 3122 3122 3123 3123 3123 3123 3122 3120 3119 3118 3117 3116 3115 3114 3114 3114 3114 3114 3114 3113 3113 3112 3110 3110 3109 3108 3106 3105 3105 3104 3103 3102 3101 3100 3100 3100 3100 3099 3099 3098 3098 3097 3097 3096 3095 3094 3093 3092 3090 3088 3087
3080 3080 3080 3081 3081 3082 3084 3087 3089 3091 3093 3094 3095 3097 3099 3102 3104 3106 3105 3103 3105 3107 3103 3100 3105 3107 3105 3108 3112 3113 3114 3116 3118 3119 3119 3118 3118 3119 3119 3119 3117 3116 3116 3115 3114 3113 3112 3111 3111 3111 3111 3110 3109 3109 3109 3108 3107 3106 3105 3105 3104 3103 3102 3101 3100 3099 3098 3097 3096 3095 3095 3095 3094 3093 3093 3092 3092 3092 3091 3090 3089 3088 3087 3085 3084 3083
3076 3076 3077 3079 3080 3081 3083 3085 3086 3088 3089 3091 3093 3094 3096 3098 3099 3099 3098 3099 3102 3101 3096 3097 3103 3102 3101 3106 3109 3110 3112 3113 3114 3114 3113 3113 3115 3115 3115 3113 3112 3111 3112 3111 3110 3109 3109 3108 3108 3107 3107 3106 3105 3104 3103 3103 3102 3102 3101 3100 3100 3099 3098 3097 3096 3095 3094 3093 3092 3091 3091 3090 3089 3088 3087 3087 3086 3086 3086 3085 3083 3082 3081 3080 3079 3078
3074 3074 3075 3077 3078 3079 3080 3081 3083 3084 3086 3087 3089 3091 3093 3094 3095 3094 3095 3096 3097 3096 3095 3098 3098 3097 3098 3102 3104 3107 3109 3109 3109 3109 3109 3110 3110 3110 3109 3108 3107 3108 3108 3106 3106 3106 3105 3104 3103 3102 3101 3100 3099 3099 3099 3098 3098 3097 3097 3096 3095 3094 3094 3093 3092 3091 3090 3089 3088 3088 3086 3085 3084 3083 3082 3082 3081 3081 3080 3079 3077 3076 3075 3074 3074 3072
3071 3071 3073 3074 3075 3076 3077 3078 3079 3081 3082 3084 3085 3087 3089 3090 3090 3090 3090 3091 3093 3092 3094 3096 3094 3092 3094 3098 3101 3104 3105 3104 3104 3105 3105 3106 3105 3103 3103 3102 3103 3104 3104 3103 3103 3102 3101 3100 3099 3098 3097 3096 3095 3094 3094 3094 3093 3093 3092 3092 3091 3090 3089 3089 3088 3087 3086 3085 3084 3083 3082 3081 3080 3079 3078 3077 3076 3076 3074 3073 3072 3071 3070 3069 3068 3067
3068 3069 3070 3072 3072 3072 3073 3075 3075 3077 3079 3080 3080 3082 3083 3083 3083 3083 3084 3087 3088 3089 3091 3093 3089 3086 3089 3095 3099 3100 3099 3100 3101 3101 3101 3100 3099 3098 3098 3097 3097 3098 3098 3099 3099 3098 3097 3096 3095 3094 3093 3092 3091 3090 3089 3089 3089 3088 3088 3087 3086 3086 3085 3084 3084 3083 3082 3081 3080 3079 3077 3076 3075 3074 3074 3073 3072 3070 3069 3068 3067 3066 3065 3064 3062 3061
3064 3065 3066 3068 3068 3069 3070 3071 3072 3075 3076 3073 3072 3073 3075 3076 3078 3079 3081 3083 3084 3086 3087 3086 3084 3085 3089 3092 3095 3095 3095 3097 3097 3096 3096 3095 3094 3094 3094 3093 3092 3092 3092 3092 3093 3093 3093 3092 3091 3091 3090 3089 3087 3086 3086 3085 3084 3084 3083 3082 3082 3081 3081 3080 3079 3078 3077 3076 3075 3073 3072 3071 3070 3070 3069 3068 3066 3065 3064 3063 3062 3061 3059 3058 3056 3054
3060 3062 3063 3065 3066 3066 3067 3069 3071 3071 3068 3064 3065 3069 3072 3072 3074 3075 3076 3078 3080 3082 3083 3082 3083 3086 3088 3088 3090 3091 3092 3092 3092 3091 3091 3091 3090 3090 3089 3089 3088 3087 3087 3086 3086 3087 3087 3087 3087 3086 3085 3084 3083 3083 3082 3081 3080 3080 3079 3078 3077 3077 3076 3075 3074 3073 3072 3071 3070 3069 3067 3066 3065 3065 3063 3062 3061 3060 3058 3057 3056 3055 3053 3051 3050 3048
3057 3059 3061 3062 3063 3064 3065 3067 3067 3063 3059 3060 3063 3066 3069 3070 3071 3072 3073 3075 3077 3078 3079 3080 3080 3081 3084 3086 3087 3087 3087 3087 3087 3087 3086 3085 3085 3084 3084 3084 3084 3084 3083 3082 3081 3081 3081 3081 3081 3081 3080 3080 3079 3078 3078 3077 3076 3076 3075 3074 3073 3072 3072 3071 3069 3068 3067 3066 3065 3064 3063 3061 3060 3059 3058 3057 3055 3054 3053 3051 3050 3048 3046 3044 3043 3042
3054 3056 3057 3058 3060 3061 3061 3061 3059 3056 3055 3058 3060 3061 3064 3065 3067 3068 3068 3069 3072 3074 3074 3075 3075 3077 3080 3082 3082 3082 3082 3083 3083 3082 3081 3081 3080 3079 3079 3079 3079 3079 3079 3078 3078 3077 3076 3076 3075 3076 3076 3075 3074 3073 3073 3072 3072 3072 3071 3070 3069 3068 3067 3066 3064 3063 3062 3061 3060 3059 3058 3056 3055 3054 3052 3051 3049 3048 3046 3045 3043 3042 3040 3038 3037 3035
3050 3052 3053 3054 3054 3055 3055 3055 3054 3054 3054 3055 3055 3056 3057 3059 3061 3064 3064 3063 3067 3069 3070 3070 3071 3073 3076 3077 3077 3078 3078 3078 3077 3077 3076 3077 3076 3076 3075 3075 3074 3074 3074 3074 3073 3072 3072 3071 3071 3070 3070 3070 3069 3069 3068 3067 3067 3066 3066 3065 3064 3063 3062 3060 3059 3058 3057 3056 3055 3053 3052 3050 3049 3047 3046 3045 3043 3042 3040 3038 3037 3035 3033 3032 3031 3029
3046 3047 3049 3050 3050 3051 3052 3051 3052 3052 3050 3049 3051 3052 3054 3055 3058 3061 3060 3059 3061 3064 3065 3066 3067 3069 3072 3072 3073 3073 3074 3073 3073 3072 3072 3073 3073 3072 3072 3071 3070 3070 3069 3069 3068 3067 3067 3067 3066 3066 3065 3065 3065 3064 3063 3062 3062 3061 3060 3059 3059 3058 3056 3055 3054 3053 3051 3050 3049 3047 3046 3044 3042 3041 3039 3038 3037 3035 3033 3032 3030 3029 3027 3025 3024 3023
3042 3043 3045 3047 3046 3047 3048 3047 3047 3046 3044 3045 3048 3050 3052 3052 3054 3058 3057 3053 3055 3058 3060 3062 3064 3066 3067 3068 3068 3069 3069 3069 3069 3069 3069 3069 3068 3068 3068 3067 3066 3066 3065 3064 3064 3063 3063 3062 3062 3062 3061 3061 3060 3060 3059 3058 3057 3056 3055 3054 3053 3052 3051 3050 3049 3047 3046 3045 3043 3042 3040 3038 3036 3035 3033 3031 3030 3029 3027 3026 3024 3022 3021 3019 3018 3016
3037 3039 3041 3041 3041 3043 3043 3042 3043 3042 3042 3044 3045 3046 3048 3049 3051 3054 3051 3047 3049 3054 3056 3059 3061 3062 3064 3065 3065 3065 3065 3065 3065 3066 3066 3065 3064 3064 3064 3063 3063 3062 3061 3060 3059 3059 3058 3058 3058 3057 3057 3056 3056 3055 3055 3054 3053 3052 3051 3050 3048 3047 3046 3045 3044 3042 3041 3040 3038 3037 3035 3033 3031 3030 3028 3026 3024 3023 3021 3020 3018 3017 3015 3013 3012 3010
3032 3034 3035 3036 3037 3039 3040 3039 3039 3039 3040 3042 3043 3043 3044 3046 3046 3046 3044 3044 3048 3051 3053 3055 3057 3058 3060 3061 3061 3061 3061 3062 3062 3061 3061 3062 3061 3060 3060 3059 3059 3058 3057 3057 3056 3055 3054 3054 3053 3053 3052 3051 3050 3050 3049 3048 3048 3047 3046 3045 3043 3042 3041 3040 3038 3037 3036 3035 3033 3032 3030 3029 3027 3025 3023 3021 3019 3018 3016 3014 3012 3011 3009 3008 3006 3004
3028 3030 3031 3032 3033 3035 3036 3036 3036 3035 3037 3039 3040 3040 3041 3041 3040 3039 3041 3045 3047 3047 3049 3051 3052 3054 3055 3056 3056 3057 3057 3057 3057 3057 3057 3057 3057 3056 3056 3055 3054 3054 3053 3053 3052 3051 3050 3050 3049 3049 3048 3047 3046 3045 3043 3043 3042 3041 3040 3039 3037 3036 3035 3034 3032 3031 3030 3029 3028 3026 3025 3023 3021 3020 3018 3016 3014 3012 3011 3009 3007 3005 3003 3002 3000 2998
3023 3025 3025 3027 3029 3031 3032 3032 3031 3031 3033 3036 3036 3036 3036 3036 3036 3038 3040 3042 3042 3043 3045 3046 3047 3048 3049 3050 3051 3051 3051 3052 3052 3051 3051 3051 3051 3052 3051 3051 3051 3050 3049 3049 3048 3047 3046 3045 3045 3045 3044 3043 3042 3040 3038 3037 3036 3036 3034 3033 3032 3030 3029 3027 3026 3025 3024 3023 3021 3020 3019 3017 3015 3014 3012 3010 3008 3007 3005 3004 3001 3000 2998 2996 2994 2992
3018 3019 3020 3021 3024 3025 3025 3024 3024 3027 3031 3033 3033 3033 3032 3032 3034 3036 3037 3038 3039 3040 3040 3041 3042 3043 3043 3044 3045 3045 3046 3046 3047 3046 3046 3046 3046 3047 3046 3046 3046 3045 3045 3045 3044 3043 3042 3041 3040 3040 3039 3039 3037 3036 3033 3031 3030 3029 3028 3026 3025 3024 3023 3021 3020 3018 3017 3016 3014 3013 3012 3010 3009 3007 3006 3004 3002 3001 2999 2998 2996 2994 2992 2990 2989 2987
3012 3014 3015 3017 3018 3018 3019 3020 3022 3026 3028 3029 3028 3028 3028 3028 3030 3031 3032 3034 3035 3035 3036 3036 3037 3038 3038 3039 3040 3040 3041 3042 3042 3043 3043 3042 3043 3043 3042 3042 3042 3041 3040 3040 3039 3038 3037 3036 3034 3034 3033 3033 3032 3031 3029 3027 3024 3022 3020 3019 3017 3016 3015 3014 3012 3011 3010 3009 3007 3005 3004 3003 3002 3000 2999 2997 2996 2994 2993 2991 2989 2988 2986 2984 2983 2981
3009 3010 3012 3014 3015 3015 3016 3018 3020 3022 3023 3024 3024 3023 3023 3024 3025 3026 3028 3029 3030 3031 3031 3032 3032 3033 3034 3035 3035 3036 3037 3038 3038 3039 3039 3039 3039 3038 3038 3038 3037 3036 3035 3034 3033 3033 3031 3030 3029 3027 3026 3026 3025 3024 3023 3022 3019 3016 3014 3012 3010 3008 3007 3005 3004 3003 3002 3001 3000 2998 2996 2995 2994 2993 2991 2990 2988 2987 2986 2984 2983 2981 2980 2978 2976 2974
3006 3008 3009 3010 3012 3012 3013 3014 3016 3018 3019 3020 3020 3019 3019 3020 3021 3023 3024 3025 3026 3027 3027 3028 3029 3029 3030 3031 3032 3032 3032 3033 3034 3034 3034 3034 3033 3033 3032 3032 3031 3030 3029 3029 3028 3027 3025 3024 3023 3021 3020 3019 3018 3017 3016 3016 3014 3011 3008 3006 3003 3000 2999 2998 2996 2995 2994 2993 2992 2991 2989 2988 2986 2985 2983 2982 2980 2979 2978 2976 2975 2973 2972 2971 2969 2967
3003 3004 3005 3007 3008 3009 3009 3011 3012 3013 3014 3015 3016 3016 3016 3017 3017 3019 3020 3021 3022 3023 3024 3024 3025 3025 3026 3027 3027 3027 3028 3028 3028 3028 3028 3028 3027 3027 3026 3025 3024 3023 3023 3022 3022 3020 3019 3018 3016 3015 3014 3013 3011 3010 3009 3009 3007 3004 3001 2999 2996 2993 2992 2991 2989 2987 2986 2985 2984 2983 2982 2980 2979 2977 2976 2974 2973 2971 2969 2968 2966 2965 2964 2963 2961 2959
2999 3000 3002 3003 3004 3005 3006 3007 3008 3008 3009 3011 3012 3013 3013 3013 3014 3015 3016 3018 3019 3019 3021 3021 3022 3022 3022 3023 3023 3023 3023 3022 3022 3022 3022 3022 3021 3021 3020 3019 3019 3018 3016 3015 3015 3014 3012 3011 3010 3008 3007 3006 3004 3003 3002 3001 3000 2997 2994 2991 2988 2985 2983 2982 2981 2979 2978 2977 2975 2974 2973 2972 2970 2969 2968 2966 2965 2963 2962 2960 2958 2957 2956 2955 2953 2950
2995 2996 2998 3000 2999 2999 3002 3004 3004 3005 3006 3007 3009 3010 3010 3010 3011 3012 3013 3014 3015 3016 3017 3017 3017 3018 3018 3018 3018 3018 3017 3017 3017 3017 3016 3016 3015 3015 3015 3014 3013 3013 3011 3010 3009 3008 3006 3005 3003 3002 3001 3000 2998 2996 2995 2994 2992 2990 2987 2984 2981 2978 2976 2974 2972 2971 2971 2969 2968 2966 2964 2963 2962 2961 2959 2958 2957 2955 2954 2953 2951 2949 2948 2947 2945 2943
2990 2992 2994 2995 2995 2997 3000 3001 3001 3002 3004 3005 3006 3007 3007 3008 3008 3009 3009 3010 3010 3011 3011 3012 3012 3013 3013 3012 3013 3012 3012 3012 3012 3011 3011 3010 3010 3009 3009 3008 3007 3006 3006 3004 3003 3002 3000 2999 2997 2995 2994 2993 2991 2989 2988 2987 2985 2982 2980 2978 2975 2972 2969 2967 2964 2963 2963 2962 2960 2958 2957 2955 2953 2952 2951 2949 2948 2946 2945 2945 2944 2942 2941 2939 2937 2936